Probability
0 0 0 0 0 0 0 0 0 0 0 0 0 6 24 49 64 74 82 82 73 54 43 54 73 87 93 84 67 56 55 58 66 75 85 91 89 80 64 45 29 16 7 3
0 0 0 0 0 0 0 0 0 0 0 0 0 7 23 38 48 57 66 74 74 63 52 60 76 87 90 84 71 62 63 69 74 80 88 93 91 81 65 48 34 21 9 4
0 0 0 0 0 0 0 0 0 0 0 0 0 4 10 15 18 24 32 49 68 73 70 72 76 76 74 71 64 58 64 71 74 78 82 86 83 75 64 52 37 21 11 9
0 0 0 0 0 0 0 0 0 0 0 0 0 0 1 1 1 3 8 23 43 58 67 72 68 56 46 42 40 39 42 47 50 53 55 57 54 52 54 51 38 23 17 17
0 0 0 0 0 0 0 0 0 0 0 0 0 0 0 0 0 1 3 8 16 27 43 55 53 38 24 16 14 14 15 16 17 19 21 21 19 22 32 42 44 38 31 30
0 0 0 0 0 0 0 0 0 0 0 0 0 0 0 1 2 3 2 2 4 13 30 44 45 36 23 11 5 2 1 1 1 2 2 2 2 5 13 27 41 44 40 37
0 0 0 0 0 0 0 0 0 0 0 0 0 0 1 4 7 7 3 2 5 13 29 42 47 43 33 24 16 7 2 0 0 0 1 1 0 1 3 10 20 28 27 25
0 0 0 0 0 0 0 0 0 0 0 0 0 1 2 5 8 7 3 3 6 11 21 31 35 36 32 27 21 11 5 4 3 2 2 1 0 0 1 2 4 7 8 7
0 0 0 0 0 0 0 0 0 0 0 0 0 1 3 4 4 3 1 2 3 5 8 12 15 17 17 15 12 7 5 7 7 3 1 1 0 0 0 1 1 0 0 1
0 0 0 0 0 0 0 0 0 0 0 0 0 1 3 2 1 0 0 0 1 1 1 2 4 5 6 4 3 1 2 4 3 2 0 0 0 0 0 0 0 0 0 0
0 0 0 0 0 0 0 0 0 0 0 0 0 0 1 0 0 0 0 0 0 0 0 0 1 1 2 1 0 0 0 0 0 0 0 0 0 0 0 0 0 0 0 0
0 0 0 0 0 0 0 0 0 0 0 0 0 0 0 0 0 0 0 0 0 0 0 0 0 0 0 0 0 0 0 0 0 0 0 0 0 0 0 0 0 0 0 0
0 0 0 0 0 0 0 0 0 0 0 0 0 0 0 0 0 0 0 0 0 0 0 0 0 0 0 0 0 0 0 0 0 0 0 0 0 0 0 0 0 0 0 0
0 0 0 0 0 0 0 0 0 0 0 0 0 0 0 0 0 0 0 0 0 0 0 0 0 0 0 0 0 0 0 0 0 0 0 0 0 0 0 0 0 0 0 0
0 0 0 0 0 0 0 0 0 0 0 0 0 0 0 0 0 0 0 0 0 0 0 0 0 0 0 0 0 0 0 0 0 0 0 0 0 0 0 0 0 0 0 0
0 0 0 0 0 0 0 0 0 0 0 0 0 0 0 0 0 0 0 0 0 0 0 0 0 0 0 0 0 0 0 0 0 0 0 0 0 0 0 0 0 0 0 0
0 0 0 0 0 0 0 0 0 0 0 0 0 0 0 0 0 0 0 0 0 0 0 0 0 0 0 0 0 0 0 0 0 0 0 0 0 0 0 0 0 0 0 0
0 0 0 0 0 0 0 0 0 0 0 0 0 0 0 0 0 0 0 0 0 0 0 0 0 0 0 0 0 0 0 0 0 0 0 0 0 0 0 0 0 0 0 0
0 0 0 0 0 0 0 0 0 0 0 0 0 0 0 0 0 0 0 0 0 0 0 0 0 0 0 0 0 0 0 0 0 0 0 0 0 0 0 0 0 0 0 0
0 0 0 0 0 0 0 0 0 0 0 0 0 0 0 0 0 0 0 0 0 0 0 0 0 0 0 0 0 0 0 0 0 0 0 0 0 0 0 0 0 0 0 0
0 0 0 0 0 0 0 0 0 0 0 0 0 0 0 0 0 0 0 0 0 0 0 0 0 0 0 0 0 0 0 0 0 0 0 0 0 0 0 0 0 0 0 0
0 0 0 0 0 0 0 0 0 0 0 0 0 0 0 0 0 0 0 0 0 0 0 0 0 0 0 0 0 0 0 0 0 0 0 0 0 0 0 0 0 0 0 0
0 0 0 0 0 0 0 0 0 0 0 0 0 0 0 0 0 0 0 0 0 0 0 0 0 0 0 0 0 0 0 0 0 0 0 0 0 0 0 0 0 0 0 0
0 0 0 0 0 0 0 0 0 0 0 0 0 0 0 0 0 0 0 0 0 0 0 0 0 0 0 0 0 0 0 0 0 0 0 0 0 0 0 0 0 0 0 0
0 0 0 0 0 0 0 0 0 0 0 0 0 0 0 0 0 0 0 0 0 0 0 0 0 0 0 0 0 0 0 0 0 0 0 0 0 0 0 0 0 0 0 0
0 0 0 0 0 0 0 0 0 0 0 0 0 0 0 0 0 0 0 0 0 0 0 0 0 0 0 0 0 0 0 0 0 0 0 0 0 0 0 0 0 0 0 0
Wind_Speed
4 7 7 6 7 8 7 10 11 8 3 8 11 12 5 5 3 3 4 4 4 4 5 5 5 6 8 9 10 10 10 9 7 6 6 6 6 4 4 5 11 13 14 13
7 7 2 3 5 7 9 10 11 7 3 7 6 6 2 2 4 5 4 3 2 5 7 7 6 6 7 7 6 6 6 6 8 7 7 7 6 6 8 10 12 14 15 14
6 3 1 6 7 8 9 11 11 10 6 6 8 11 9 5 4 4 5 4 5 4 5 6 6 7 7 5 4 1 1 3 5 7 6 5 6 7 9 12 12 15 16 15
5 1 4 7 6 6 8 4 6 8 10 12 11 12 11 11 9 6 5 6 7 7 7 7 7 7 5 4 2 3 3 4 5 6 6 7 8 10 14 13 13 14 15 13
5 4 6 7 4 6 5 2 7 9 11 14 13 13 11 12 11 7 6 6 7 8 8 8 8 7 6 4 3 2 2 3 4 4 5 7 9 10 11 13 14 13 10 10
4 3 5 5 4 7 6 8 9 11 12 18 18 16 13 9 9 8 6 6 7 8 9 8 8 7 6 6 5 5 6 5 4 4 5 7 10 12 14 15 12 8 4 2
8 10 6 6 10 10 12 12 10 11 13 15 11 12 8 9 7 5 6 6 8 9 9 10 10 9 7 5 1 3 4 5 4 5 5 6 9 9 7 7 6 5 3 2
7 8 6 4 8 8 12 15 12 10 10 6 3 11 2 8 8 8 6 6 7 9 10 11 11 11 10 10 9 6 4 4 4 5 7 7 8 4 2 1 3 5 4 3
7 4 4 2 4 7 6 8 6 6 6 7 9 7 5 7 8 7 7 7 8 9 10 11 12 12 11 10 10 9 8 7 8 7 7 6 7 5 4 5 6 5 4 2
8 9 6 5 6 5 7 4 4 6 6 8 9 10 5 9 9 7 5 6 7 7 8 9 10 11 10 9 9 10 9 8 8 8 6 3 5 6 7 7 7 6 4 3
8 9 6 8 10 9 9 8 7 7 7 8 8 2 5 3 4 5 4 4 6 6 6 7 7 8 8 8 8 7 7 6 5 6 5 5 4 5 6 6 6 5 4 4
5 8 10 10 2 5 9 10 9 10 11 9 9 3 8 7 6 5 3 3 4 4 5 6 6 6 5 6 6 6 6 6 5 4 3 4 5 5 6 6 5 5 4 3
2 6 11 10 4 4 8 10 10 11 10 10 11 6 9 9 8 4 2 2 2 3 4 5 4 4 4 4 4 4 4 5 5 5 3 3 5 5 6 6 5 5 4 3
5 7 11 14 11 11 13 14 12 12 11 13 15 11 11 12 10 7 3 3 3 2 3 3 3 3 3 3 3 4 3 3 3 4 3 3 3 4 5 5 5 4 4 4
7 12 12 12 13 14 16 17 16 15 15 15 16 12 3 11 10 7 4 0 3 3 2 1 1 2 2 3 2 3 4 3 2 2 3 3 3 3 5 5 5 4 4 5
5 9 11 12 10 12 15 14 13 13 12 13 12 3 8 10 9 8 6 5 5 4 3 1 1 1 1 2 2 2 3 4 4 4 4 3 2 3 4 5 5 4 4 5
7 8 10 10 8 10 9 5 8 9 8 8 8 2 10 9 9 8 7 6 5 4 2 2 4 4 2 1 0 2 3 3 3 3 3 3 3 4 4 4 4 4 4 4
7 8 7 8 9 9 1 1 5 7 5 3 0 7 9 8 7 7 8 7 5 3 1 2 4 3 2 2 2 3 4 3 2 2 3 4 5 6 5 4 4 3 3 4
4 7 9 7 9 10 2 3 4 6 5 2 3 6 9 8 8 9 9 7 4 2 1 3 4 3 1 3 3 3 3 3 2 2 3 3 4 4 3 4 4 3 3 5
5 6 9 9 10 9 3 3 0 5 5 4 4 6 9 10 8 6 10 8 5 3 2 2 3 3 1 1 1 1 1 1 2 3 3 3 2 2 2 1 1 1 2 3
6 7 7 8 8 6 5 3 4 6 4 4 3 6 8 8 2 7 8 6 4 2 1 1 1 3 2 2 2 1 3 4 5 5 4 4 3 2 2 3 3 2 0 3
7 6 5 5 6 2 5 4 6 5 5 3 4 6 7 5 4 5 6 5 4 4 3 2 3 4 2 2 2 3 4 5 5 4 4 4 5 4 4 3 3 3 2 3
6 5 5 5 5 3 4 7 3 4 5 4 6 7 7 7 6 6 5 4 3 3 3 3 5 5 4 4 4 5 5 5 5 4 4 4 5 6 7 7 6 5 5 5
6 5 8 8 8 6 7 9 7 6 5 6 8 8 8 8 7 6 5 5 4 4 4 5 5 5 5 5 4 4 5 6 6 5 3 3 3 4 6 6 6 6 6 6
10 6 9 12 12 8 9 11 11 9 8 9 9 9 9 8 7 6 5 5 5 5 5 4 4 5 5 5 6 5 5 4 4 4 4 4 4 3 3 4 4 5 4 4
13 13 13 11 9 8 6 8 14 13 13 12 11 11 9 8 7 7 6 6 6 6 6 5 5 5 6 6 7 6 3 1 1 0 2 3 4 4 4 5 5 4 3 3
Wind_Direction
191 234 235 232 243 288 273 241 222 208 155 228 229 240 264 353 8 65 89 118 137 154 155 162 166 166 164 177 188 198 207 205 211 217 220 217 217 207 208 251 275 274 265 257
214 219 237 268 236 238 235 237 230 196 185 241 212 215 188 13 38 41 59 79 155 166 160 156 151 145 147 157 171 190 206 216 226 232 232 229 222 219 218 214 227 243 251 246
260 83 203 212 202 215 220 232 231 229 203 223 245 229 187 152 131 100 83 80 63 66 100 117 124 117 119 132 148 139 339 302 290 287 268 254 239 238 228 226 224 227 232 233
238 191 231 211 206 240 222 229 253 249 247 241 231 259 199 163 161 129 96 82 74 61 67 83 98 98 97 97 84 62 24 342 327 311 289 269 251 244 240 234 229 228 230 232
195 194 225 228 226 254 270 214 243 253 259 264 248 254 248 169 183 143 101 77 70 68 64 66 82 104 118 135 135 143 218 266 291 297 291 288 273 263 257 247 233 228 230 235
237 216 261 272 251 252 243 228 240 247 253 249 247 251 257 209 182 136 104 84 75 75 78 76 83 99 119 145 169 203 230 251 275 289 289 286 286 282 265 245 226 213 205 220
217 219 219 244 250 225 224 230 234 227 223 240 231 238 249 85 88 111 109 82 71 71 69 64 57 51 47 43 33 255 269 286 289 296 315 315 302 294 282 243 197 149 112 63
258 233 194 214 253 256 232 237 246 260 264 267 187 243 195 107 108 114 109 92 75 65 59 55 51 45 37 30 20 10 359 334 316 316 335 341 327 316 321 39 90 90 82 59
274 254 126 220 253 260 240 245 254 266 278 274 257 248 147 150 144 137 122 95 73 63 56 51 47 44 39 33 29 26 30 24 13 5 7 358 350 8 37 59 66 69 69 58
270 267 192 180 206 221 261 229 201 230 250 250 240 238 241 191 176 143 114 94 80 67 53 45 42 41 39 39 47 53 52 42 23 11 9 3 9 23 35 48 59 71 77 62
267 268 222 197 223 216 198 216 231 244 255 273 275 245 56 26 135 125 108 84 71 61 49 41 36 35 37 37 40 47 53 48 26 11 2 15 35 56 61 56 52 58 62 61
249 275 274 245 235 293 250 253 253 255 257 257 276 288 97 95 88 95 91 68 62 44 43 38 33 28 31 29 30 31 30 33 25 18 30 48 52 65 83 88 85 85 81 77
266 269 278 267 237 248 259 255 253 259 266 262 257 248 141 140 125 106 66 33 21 10 17 24 34 31 25 14 9 15 21 16 7 358 8 65 79 78 74 73 70 72 78 76
278 277 286 291 299 303 295 289 281 268 264 266 263 263 171 171 154 136 92 8 338 332 347 7 15 20 13 6 352 346 8 12 358 345 356 38 75 88 90 81 72 65 55 46
284 283 286 285 280 275 273 273 277 278 278 277 283 295 192 166 155 144 132 171 271 267 280 303 321 335 344 6 5 355 357 12 16 27 36 35 51 87 91 83 78 72 58 51
295 296 295 287 286 288 277 273 276 279 281 285 287 306 98 123 135 143 160 192 233 247 254 280 322 319 332 352 12 36 49 38 45 61 57 46 77 111 109 102 99 93 81 70
296 296 296 297 315 292 278 281 276 281 292 296 296 160 142 152 158 161 172 200 225 241 241 344 351 343 320 309 353 98 97 99 79 62 49 39 45 74 86 91 91 92 101 95
286 287 286 291 299 286 319 300 282 282 283 287 66 148 167 173 175 184 191 202 210 210 209 22 360 360 316 262 199 158 166 173 156 97 59 49 52 58 57 61 72 84 95 83
258 275 287 288 293 295 249 221 258 278 286 216 213 174 175 174 187 200 199 208 206 199 283 347 358 11 291 235 207 195 191 185 158 114 87 69 76 86 72 54 39 26 44 61
199 242 272 285 296 298 10 103 166 285 265 136 188 183 177 190 219 179 167 184 188 201 244 315 7 50 119 138 303 256 191 140 100 85 79 71 81 120 139 138 24 346 11 35
261 256 267 282 285 295 76 139 211 262 31 80 213 189 189 210 331 106 148 166 173 188 209 251 89 103 79 45 19 19 52 65 67 64 65 54 51 91 157 195 203 221 251 35
287 282 267 276 282 337 126 209 243 325 9 302 220 188 188 177 141 150 162 168 182 197 194 185 135 115 99 95 111 94 72 68 71 70 60 34 13 12 44 89 138 131 85 48
248 279 304 294 308 14 226 240 260 303 287 241 194 180 178 178 179 175 174 178 181 196 186 165 151 147 151 157 151 117 97 94 94 89 69 35 21 30 37 44 56 75 67 49
236 226 260 267 266 255 231 226 223 228 237 199 186 180 184 188 182 175 171 167 172 177 175 173 171 162 141 146 148 125 124 130 126 117 105 79 54 47 47 44 41 48 50 49
285 247 254 261 270 266 235 222 212 202 198 190 191 189 191 190 184 178 173 165 159 155 160 173 169 151 135 139 149 156 154 146 136 147 157 156 156 147 116 93 74 71 70 78
263 255 253 265 272 253 257 213 202 196 195 193 195 196 196 197 188 181 175 165 163 158 159 166 161 151 148 152 153 158 165 174 320 27 128 150 161 161 156 141 134 111 89 118